Weather History for Niagara Falls, NY

Change the Weather History Date:

Monday, July 15, 2013

  Actual Average Record
Temperature  
Mean Temperature 81 °F -  
Max Temperature 89 °F 78 °F 91 °F (2005)
Min Temperature 73 °F 59 °F 49 °F (1989)
Cooling Degree Days 16    
Growing Degree Days 31 (Base 50)    
Moisture  
Dew Point 66 °F    
Average Humidity 64    
Maximum Humidity 93    
Minimum Humidity 32    
Precipitation  
Precipitation 0.00 in - - ()
Sea Level Pressure  
Sea Level Pressure 30.25 in    
Wind  
Wind Speed 3 mph (WNW)    
Max Wind Speed 9 mph    
Max Gust Speed -    
Visibility 10 miles    
Events      
Averages and records for this station are not official NWS values.
T = Trace of Precipitation, MM = Missing Value Source: NWS Daily Summary

Daily Weather History Graph

Daily Weather History Graph

Search for Another Location

Airport:

Trip Planner

Search our weather history database for the weather conditions in past years. The results will help you decide how hot, cold, wet, or windy it might be!

Date:

Astronomy

Jul. 15, 2013 Rise Set
Actual Time 5:50 AM EDT 8:52 PM EDT
Civil Twilight 5:15 AM EDT 9:27 PM EDT
Nautical Twilight 4:32 AM EDT 10:10 PM EDT
Astronomical Twilight 3:40 AM EDT 11:02 PM EDT
Moon 1:21 PM EDT (7/15) No Moon Set
Length of Visible Light 16h 11m
Length of Day
15h 02m
Waxing Crescent, 45% of the Moon is Illuminated
Jul 15
Waxing Crescent
Jul 15
First Quarter
Jul 22
Full
Jul 29
Last Quarter
Aug 6
New

Hourly Weather History & Observations

Time (EDT) Temp. Heat Index Dew Point Humidity Pressure Visibility Wind Dir Wind Speed Gust Speed Precip Events Conditions
12:53 AM 77.0 °F - 70.0 °F 79% 30.24 in 10.0 mi South 3.5 mph - N/A   Partly Cloudy
1:53 AM 75.0 °F - 70.0 °F 84% 30.25 in 10.0 mi South 3.5 mph - N/A   Clear
2:53 AM 75.0 °F - 70.0 °F 84% 30.25 in 9.0 mi Calm Calm - N/A   Partly Cloudy
3:53 AM 73.0 °F - 71.1 °F 93% 30.25 in 8.0 mi SSW 3.5 mph - N/A   Clear
4:53 AM 73.0 °F - 70.0 °F 90% 30.25 in 8.0 mi Calm Calm - N/A   Clear
5:53 AM 73.0 °F - 69.1 °F 87% 30.26 in 10.0 mi Calm Calm - N/A   Partly Cloudy
6:53 AM 75.0 °F - 70.0 °F 84% 30.27 in 10.0 mi SW 4.6 mph - N/A   Overcast
7:01 AM 75.2 °F - 69.8 °F 83% 30.29 in 10.0 mi SW 3.5 mph - N/A   Mostly Cloudy
7:53 AM 77.0 °F - 68.0 °F 74% 30.28 in 10.0 mi SW 4.6 mph - N/A   Mostly Cloudy
8:53 AM 80.1 °F 82.9 °F 69.1 °F 69% 30.29 in 10.0 mi Variable 3.5 mph - N/A   Mostly Cloudy
9:53 AM 82.9 °F 87.0 °F 70.0 °F 65% 30.28 in 10.0 mi NW 3.5 mph - N/A   Scattered Clouds
10:53 AM 84.9 °F 89.4 °F 70.0 °F 61% 30.27 in 10.0 mi North 6.9 mph - N/A   Scattered Clouds
11:53 AM 84.9 °F 90.1 °F 71.1 °F 63% 30.28 in 10.0 mi WNW 4.6 mph - N/A   Scattered Clouds
12:53 PM 86.0 °F 90.1 °F 69.1 °F 57% 30.27 in 10.0 mi NNW 5.8 mph - N/A   Scattered Clouds
1:53 PM 87.1 °F 89.9 °F 66.9 °F 51% 30.26 in 10.0 mi Calm Calm - N/A   Partly Cloudy
2:53 PM 87.1 °F 90.6 °F 68.0 °F 53% 30.25 in 10.0 mi NNW 6.9 mph - N/A   Partly Cloudy
3:53 PM 89.1 °F 92.1 °F 66.9 °F 48% 30.25 in 10.0 mi NNW 9.2 mph - N/A   Partly Cloudy
4:53 PM 88.0 °F 87.6 °F 60.1 °F 39% 30.24 in 10.0 mi NNW 8.1 mph - N/A   Partly Cloudy
5:53 PM 88.0 °F 86.9 °F 57.9 °F 36% 30.24 in 10.0 mi North 6.9 mph - N/A   Partly Cloudy
6:53 PM 87.1 °F 85.1 °F 54.0 °F 32% 30.23 in 10.0 mi North 5.8 mph - N/A   Partly Cloudy
7:53 PM 86.0 °F 85.0 °F 57.9 °F 38% 30.22 in 10.0 mi Calm Calm - N/A   Partly Cloudy
8:53 PM 82.9 °F 83.2 °F 60.1 °F 46% 30.22 in 10.0 mi Calm Calm - N/A   Partly Cloudy
9:53 PM 79.0 °F - 61.0 °F 54% 30.23 in 10.0 mi Calm Calm - N/A   Partly Cloudy
10:53 PM 77.0 °F - 62.1 °F 60% 30.23 in 10.0 mi Calm Calm - N/A   Clear
11:53 PM 75.0 °F - 62.1 °F 64% 30.24 in 10.0 mi Calm Calm - N/A   Clear